This is the latest recevied weather packets stored in our database for station/object SP9MUF-14. If no packets are shown the sender has not sent any weather packets the latest 10 day(s).
| Time | Temp. | Humidity | Pressure | Rain* | Wind** | Luminosity | Snow |
|---|---|---|---|---|---|---|---|
| 1788006926 | 23.89° C | 57% | 1015 hPa | 0 mm | - | 522 W/m² | - |
| 1788006322 | 22.78° C | 62% | 1015.1 hPa | 0 mm | - | 548 W/m² | - |
| 1788006020 | 21.67° C | 64% | 1015.3 hPa | 0 mm | - | 566 W/m² | - |
| 1788005419 | 21.67° C | 65% | 1015.5 hPa | 0 mm | - | 147 W/m² | - |
| 1788005416 | 21.67° C | 65% | 1015.5 hPa | 0 mm | - | 147 W/m² | - |
| 1788005114 | 21.67° C | 67% | 1015.4 hPa | 0 mm | - | 168 W/m² | - |
| 1788004812 | 21.67° C | 64% | 1015.4 hPa | 0 mm | - | 632 W/m² | - |
| 1788004509 | 21.67° C | 65% | 1015.6 hPa | 0 mm | - | 580 W/m² | - |
| 1788004207 | 22.78° C | 63% | 1015.4 hPa | 0 mm | - | 668 W/m² | - |
| 1788003905 | 21.67° C | 64% | 1015.5 hPa | 0 mm | - | 647 W/m² | - |
| 1788003603 | 21.67° C | 68% | 1015.6 hPa | 0 mm | - | 591 W/m² | - |
| 1788002999 | 21.67° C | 68% | 1015.6 hPa | 0 mm | - | 670 W/m² | - |
| 1788002696 | 20.56° C | 68% | 1015.7 hPa | 0 mm | - | 554 W/m² | - |
| 1788002395 | 20.56° C | 70% | 1015.7 hPa | 0 mm | - | 329 W/m² | - |
| 1788002092 | 20.56° C | 69% | 1015.7 hPa | 0 mm | - | 543 W/m² | - |
| 1788001790 | 20.56° C | 71% | 1015.7 hPa | 0 mm | - | 200 W/m² | - |
| 1788000884 | 20.56° C | 72% | 1015.6 hPa | 0 mm | - | 650 W/m² | - |
| 1788000582 | 20.56° C | 74% | 1015.7 hPa | 0 mm | - | 718 W/m² | - |
| 1788000280 | 20° C | 75% | 1015.8 hPa | 0 mm | - | 687 W/m² | - |
| 1787999978 | 20° C | 76% | 1015.9 hPa | 0 mm | - | 690 W/m² | - |
| 1787999676 | 18.89° C | 77% | 1015.8 hPa | 0 mm | - | 164 W/m² | - |
| 1787999374 | 18.89° C | 76% | 1015.8 hPa | 0 mm | - | 144 W/m² | - |
| 1787999072 | 18.89° C | 79% | 1015.9 hPa | 0 mm | - | 711 W/m² | - |
| 1787998769 | 18.89° C | 81% | 1015.9 hPa | 0 mm | - | 281 W/m² | - |
| 1787998467 | 18.89° C | 82% | 1016 hPa | 0 mm | - | 166 W/m² | - |
* Rain latest hour (hover to see other rain measurements)
** Current wind speed in m/s (hover to see current wind gust speed)